Regional Weather Roundup
Issued by NWS

Home | Current Version | Previous Version | Graphics & Text | Print | Product List | Glossary On
Versions: 1 2 3 4 5 6 7 8 9 10 11 12 13 14 15 16 17 18 19 20 21 22 23 24 25 26 27 28 29 30 31 32 33 34 35 36 37 38 39 40 41 42 43 44 45 46 47 48 49 50
000
ASUS44 KMEG 281810
RWRTN
TENNESSEE HOURLY STATE WEATHER ROUNDUP
NATIONAL WEATHER SERVICE MEMPHIS TN
100 PM CDT MON JUL 28 2014

TNZ002-004-019-021-049-052-054-088>092-281900-
WEST TENNESSEE

CITY           SKY/WX    TMP DP  RH WIND       PRES   REMARKS
MEMPHIS INTL   MOSUNNY   83  62  49 N14G20    30.07F
NWS MEMPHIS      N/A     81 N/A N/A MISG        N/A
JACKSON        MOSUNNY   82  62  50 N13       30.06F
DYERSBURG      MOSUNNY   81  59  47 N7        30.08S
UNION CITY     MOSUNNY   79  63  57 NW12      30.05S
PARIS          MOSUNNY   77  61  57 VRB6      30.06S
LEXINGTON      MOSUNNY   81  63  54 NW12      30.04S
SAVANNAH       MOSUNNY   81  63  54 N9        30.05S
$$

TNZ008-025-027-028-033-062-065-066-281900-
NORTH MIDDLE TENNESSEE

CITY           SKY/WX    TMP DP  RH WIND       PRES   REMARKS
NASHVILLE      PTSUNNY   83  60  45 N13       30.01F
DICKSON        MOSUNNY   77  63  61 NW9       30.03F
CLARKSVILLE    MOSUNNY   83  58  42 N15       30.02F
LEBANON        MOSUNNY   80  60  50 NW10      30.00F
SMYRNA         PTSUNNY   84  62  47 N10       30.01F
MURFREESBORO   MOSUNNY   79  59  50 N9        30.01S
COOKEVILLE     MOSUNNY   81  64  57 NW9       30.01S
LIVINGSTON       N/A     75  59  57 NW9       30.01F
CROSSVILLE     PTSUNNY   75  59  57 NW12      30.03F
$$

TNZ061-075-076-078-094-096-097-281900-
SOUTH MIDDLE TENNESSEE

CITY           SKY/WX    TMP DP  RH WIND       PRES   REMARKS
LEWISBURG      PTSUNNY   80  61  52 VRB7      30.02F
FAYETTEVILLE   SUNNY     81  57  44 NW13      30.02S
TULLAHOMA      MOSUNNY   79  61  53 N12       30.03S
WINCHESTER     MOSUNNY   79  61  53 NW8       30.01F
MCMINNVILLE    PTSUNNY   77  64  65 NW8       30.02S
COLUMBIA       MOSUNNY   82  63  51 NW8       30.02S
SHELBYVILLE    MOSUNNY   81  63  54 NW12      30.02F
$$

TNZ017-018-042-046-047-281900-
NORTHEAST TENNESSEE

CITY           SKY/WX    TMP DP  RH WIND       PRES   REMARKS
TRI CITIES     MOSUNNY   76  58  53 W14       29.95F
ELIZABETHTON   MOCLDY    73  57  56 NW9         N/A
$$

TNZ012-013-036-069-073-074-281900-
CENTRAL EAST TENNESSEE

CITY           SKY/WX    TMP DP  RH WIND       PRES   REMARKS
KNOXVILLE      PTSUNNY   79  59  50 W13       29.96F
OAK RIDGE      CLOUDY    82  58  43 W7        29.98F
GATLINBURG     PTCLDY    79  57  47 W9        29.96S
MORRISTOWN     PTCLDY    79  61  53 NW8       29.98S
$$

TNZ083-085-099-281900-
SOUTHEAST TENNESSEE

CITY           SKY/WX    TMP DP  RH WIND       PRES   REMARKS
CHATTANOOGA    MOSUNNY   85  58  39 NW12      29.97F
$$

SKY/WX REPORTED AS FAIR MEANS FEW OR NO CLOUDS BELOW
12 THOUSAND FEET.



USA.gov is the U.S. government's official web portal to all federal, state and local government web resources and services.